owner,sensor,date,latitude,longitude,vertical_datum,sea_water_temperature,qcFlag 
FWRI,ioos:station:FWRI:NPD:2,2013-01-01T00:59:00Z,27.3338,-82.5794,0.0,17.28,2 
FWRI,ioos:station:FWRI:NPD:2,2013-01-01T01:59:00Z,27.3338,-82.5794,0.0,16.98,2 
FWRI,ioos:station:FWRI:NPD:2,2013-01-01T02:59:00Z,27.3338,-82.5794,0.0,15.33,2 
FWRI,ioos:station:FWRI:NPD:2,2013-01-01T03:59:00Z,27.3338,-82.5794,0.0,14.63,2 
FWRI,ioos:station:FWRI:NPD:2,2013-01-01T04:59:00Z,27.3338,-82.5794,0.0,14.11,2 
FWRI,ioos:station:FWRI:NPD:2,2013-01-01T05:59:00Z,27.3338,-82.5794,0.0,13.5,2 
FWRI,ioos:station:FWRI:NPD:2,2013-01-01T06:59:00Z,27.3338,-82.5794,0.0,16.65,2 
FWRI,ioos:station:FWRI:NPD:2,2013-01-01T07:59:00Z,27.3338,-82.5794,0.0,16.68,2 
FWRI,ioos:station:FWRI:NPD:2,2013-01-01T08:59:00Z,27.3338,-82.5794,0.0,16.62,2 
FWRI,ioos:station:FWRI:NPD:2,2013-01-01T09:59:00Z,27.3338,-82.5794,0.0,16.44,2 
FWRI,ioos:station:FWRI:NPD:2,2013-01-01T10:59:00Z,27.3338,-82.5794,0.0,16.33,2 
FWRI,ioos:station:FWRI:NPD:2,2013-01-01T11:59:00Z,27.3338,-82.5794,0.0,16.36,2 
FWRI,ioos:station:FWRI:NPD:2,2013-01-01T12:59:00Z,27.3338,-82.5794,0.0,16.17,2 
FWRI,ioos:station:FWRI:NPD:2,2013-01-01T13:59:00Z,27.3338,-82.5794,0.0,16.24,2 
FWRI,ioos:station:FWRI:NPD:2,2013-01-01T14:59:00Z,27.3338,-82.5794,0.0,16.68,2 
FWRI,ioos:station:FWRI:NPD:2,2013-01-01T15:59:00Z,27.3338,-82.5794,0.0,17.05,2 
FWRI,ioos:station:FWRI:NPD:2,2013-01-01T16:59:00Z,27.3338,-82.5794,0.0,17.45,2 
FWRI,ioos:station:FWRI:NPD:2,2013-01-01T17:59:00Z,27.3338,-82.5794,0.0,17.92,2 
FWRI,ioos:station:FWRI:NPD:2,2013-01-01T18:59:00Z,27.3338,-82.5794,0.0,18.05,2 
FWRI,ioos:station:FWRI:NPD:2,2013-01-01T19:59:00Z,27.3338,-82.5794,0.0,18.15,2 
FWRI,ioos:station:FWRI:NPD:2,2013-01-01T20:59:00Z,27.3338,-82.5794,0.0,22.34,2 
FWRI,ioos:station:FWRI:NPD:2,2013-01-01T21:59:00Z,27.3338,-82.5794,0.0,23.13,2 
FWRI,ioos:station:FWRI:NPD:2,2013-01-01T22:59:00Z,27.3338,-82.5794,0.0,18.12,2 
FWRI,ioos:station:FWRI:NPD:2,2013-01-01T23:59:00Z,27.3338,-82.5794,0.0,17.92,2 
FWRI,ioos:station:FWRI:NPD:2,2013-01-02T00:59:00Z,27.3338,-82.5794,0.0,17.82,2 
FWRI,ioos:station:FWRI:NPD:2,2013-01-02T01:59:00Z,27.3338,-82.5794,0.0,17.73,2 
FWRI,ioos:station:FWRI:NPD:2,2013-01-02T02:59:00Z,27.3338,-82.5794,0.0,17.66,2 
FWRI,ioos:station:FWRI:NPD:2,2013-01-02T03:59:00Z,27.3338,-82.5794,0.0,17.59,2 
FWRI,ioos:station:FWRI:NPD:2,2013-01-02T04:59:00Z,27.3338,-82.5794,0.0,17.65,2 
FWRI,ioos:station:FWRI:NPD:2,2013-01-02T05:59:00Z,27.3338,-82.5794,0.0,17.67,2 
FWRI,ioos:station:FWRI:NPD:2,2013-01-02T06:59:00Z,27.3338,-82.5794,0.0,17.64,2 
FWRI,ioos:station:FWRI:NPD:2,2013-01-02T07:59:00Z,27.3338,-82.5794,0.0,17.66,2 
FWRI,ioos:station:FWRI:NPD:2,2013-01-02T08:59:00Z,27.3338,-82.5794,0.0,17.66,2 
FWRI,ioos:station:FWRI:NPD:2,2013-01-02T09:59:00Z,27.3338,-82.5794,0.0,17.61,2 
FWRI,ioos:station:FWRI:NPD:2,2013-01-02T10:59:00Z,27.3338,-82.5794,0.0,17.49,2 
FWRI,ioos:station:FWRI:NPD:2,2013-01-02T11:59:00Z,27.3338,-82.5794,0.0,17.42,2 
FWRI,ioos:station:FWRI:NPD:2,2013-01-02T12:59:00Z,27.3338,-82.5794,0.0,17.44,2 
FWRI,ioos:station:FWRI:NPD:2,2013-01-02T13:59:00Z,27.3338,-82.5794,0.0,17.5,2 
FWRI,ioos:station:FWRI:NPD:2,2013-01-02T14:59:00Z,27.3338,-82.5794,0.0,17.6,2 
FWRI,ioos:station:FWRI:NPD:2,2013-01-02T15:59:00Z,27.3338,-82.5794,0.0,17.78,2 
FWRI,ioos:station:FWRI:NPD:2,2013-01-02T16:59:00Z,27.3338,-82.5794,0.0,18.03,2 
FWRI,ioos:station:FWRI:NPD:2,2013-01-02T17:59:00Z,27.3338,-82.5794,0.0,18.5,2 
FWRI,ioos:station:FWRI:NPD:2,2013-01-02T18:59:00Z,27.3338,-82.5794,0.0,18.68,2 
FWRI,ioos:station:FWRI:NPD:2,2013-01-02T19:59:00Z,27.3338,-82.5794,0.0,18.79,2 
FWRI,ioos:station:FWRI:NPD:2,2013-01-02T20:59:00Z,27.3338,-82.5794,0.0,18.83,2 
FWRI,ioos:station:FWRI:NPD:2,2013-01-02T21:59:00Z,27.3338,-82.5794,0.0,18.79,2 
FWRI,ioos:station:FWRI:NPD:2,2013-01-02T22:59:00Z,27.3338,-82.5794,0.0,18.55,2 
FWRI,ioos:station:FWRI:NPD:2,2013-01-02T23:59:00Z,27.3338,-82.5794,0.0,18.5,2 
FWRI,ioos:station:FWRI:NPD:2,2013-01-03T00:59:00Z,27.3338,-82.5794,0.0,18.57,2 
FWRI,ioos:station:FWRI:NPD:2,2013-01-03T01:59:00Z,27.3338,-82.5794,0.0,18.47,2 
FWRI,ioos:station:FWRI:NPD:2,2013-01-03T02:59:00Z,27.3338,-82.5794,0.0,18.45,2 
FWRI,ioos:station:FWRI:NPD:2,2013-01-03T03:59:00Z,27.3338,-82.5794,0.0,18.43,2 
FWRI,ioos:station:FWRI:NPD:2,2013-01-03T04:59:00Z,27.3338,-82.5794,0.0,18.36,2 
FWRI,ioos:station:FWRI:NPD:2,2013-01-03T05:59:00Z,27.3338,-82.5794,0.0,18.32,2 
FWRI,ioos:station:FWRI:NPD:2,2013-01-03T06:59:00Z,27.3338,-82.5794,0.0,18.28,2 
FWRI,ioos:station:FWRI:NPD:2,2013-01-03T07:59:00Z,27.3338,-82.5794,0.0,18.25,2 
FWRI,ioos:station:FWRI:NPD:2,2013-01-03T08:59:00Z,27.3338,-82.5794,0.0,18.22,2 
FWRI,ioos:station:FWRI:NPD:2,2013-01-03T09:59:00Z,27.3338,-82.5794,0.0,18.27,2 
FWRI,ioos:station:FWRI:NPD:2,2013-01-03T10:59:00Z,27.3338,-82.5794,0.0,18.24,2 
FWRI,ioos:station:FWRI:NPD:2,2013-01-03T11:59:00Z,27.3338,-82.5794,0.0,18.24,2 
FWRI,ioos:station:FWRI:NPD:2,2013-01-03T12:59:00Z,27.3338,-82.5794,0.0,18.24,2 
FWRI,ioos:station:FWRI:NPD:2,2013-01-03T13:59:00Z,27.3338,-82.5794,0.0,18.25,2 
FWRI,ioos:station:FWRI:NPD:2,2013-01-03T14:59:00Z,27.3338,-82.5794,0.0,18.41,2 
FWRI,ioos:station:FWRI:NPD:2,2013-01-03T15:59:00Z,27.3338,-82.5794,0.0,18.66,2 
FWRI,ioos:station:FWRI:NPD:2,2013-01-03T16:59:00Z,27.3338,-82.5794,0.0,18.81,2 
FWRI,ioos:station:FWRI:NPD:2,2013-01-03T17:59:00Z,27.3338,-82.5794,0.0,19.19,2 
FWRI,ioos:station:FWRI:NPD:2,2013-01-03T18:59:00Z,27.3338,-82.5794,0.0,19.5,2 
FWRI,ioos:station:FWRI:NPD:2,2013-01-03T19:59:00Z,27.3338,-82.5794,0.0,19.51,2 
FWRI,ioos:station:FWRI:NPD:2,2013-01-03T20:59:00Z,27.3338,-82.5794,0.0,19.43,2 
FWRI,ioos:station:FWRI:NPD:2,2013-01-03T21:59:00Z,27.3338,-82.5794,0.0,19.29,2 
FWRI,ioos:station:FWRI:NPD:2,2013-01-03T22:59:00Z,27.3338,-82.5794,0.0,20.45,2 
FWRI,ioos:station:FWRI:NPD:2,2013-01-03T23:59:00Z,27.3338,-82.5794,0.0,20.4,2 
FWRI,ioos:station:FWRI:NPD:2,2013-01-04T00:59:00Z,27.3338,-82.5794,0.0,20.14,2 
FWRI,ioos:station:FWRI:NPD:2,2013-01-04T01:59:00Z,27.3338,-82.5794,0.0,20.01,2 
FWRI,ioos:station:FWRI:NPD:2,2013-01-04T02:59:00Z,27.3338,-82.5794,0.0,19.2,2 
FWRI,ioos:station:FWRI:NPD:2,2013-01-04T03:59:00Z,27.3338,-82.5794,0.0,19.11,2 
FWRI,ioos:station:FWRI:NPD:2,2013-01-04T04:59:00Z,27.3338,-82.5794,0.0,18.88,2 
FWRI,ioos:station:FWRI:NPD:2,2013-01-04T05:59:00Z,27.3338,-82.5794,0.0,18.79,2 
FWRI,ioos:station:FWRI:NPD:2,2013-01-04T06:59:00Z,27.3338,-82.5794,0.0,18.72,2 
FWRI,ioos:station:FWRI:NPD:2,2013-01-04T07:59:00Z,27.3338,-82.5794,0.0,18.65,2 
FWRI,ioos:station:FWRI:NPD:2,2013-01-04T08:59:00Z,27.3338,-82.5794,0.0,18.58,2 
FWRI,ioos:station:FWRI:NPD:2,2013-01-04T09:59:00Z,27.3338,-82.5794,0.0,18.54,2 
FWRI,ioos:station:FWRI:NPD:2,2013-01-04T10:59:00Z,27.3338,-82.5794,0.0,18.51,2 
FWRI,ioos:station:FWRI:NPD:2,2013-01-04T11:59:00Z,27.3338,-82.5794,0.0,18.49,2 
FWRI,ioos:station:FWRI:NPD:2,2013-01-04T12:59:00Z,27.3338,-82.5794,0.0,18.35,2 
FWRI,ioos:station:FWRI:NPD:2,2013-01-04T13:59:00Z,27.3338,-82.5794,0.0,18.37,2 
FWRI,ioos:station:FWRI:NPD:2,2013-01-04T14:59:00Z,27.3338,-82.5794,0.0,18.39,2 
FWRI,ioos:station:FWRI:NPD:2,2013-01-04T15:59:00Z,27.3338,-82.5794,0.0,18.13,2 
FWRI,ioos:station:FWRI:NPD:2,2013-01-04T16:59:00Z,27.3338,-82.5794,0.0,17.91,2 
FWRI,ioos:station:FWRI:NPD:2,2013-01-04T17:59:00Z,27.3338,-82.5794,0.0,18.0,2 
FWRI,ioos:station:FWRI:NPD:2,2013-01-04T18:59:00Z,27.3338,-82.5794,0.0,17.98,2 
FWRI,ioos:station:FWRI:NPD:2,2013-01-04T19:59:00Z,27.3338,-82.5794,0.0,18.62,2 
FWRI,ioos:station:FWRI:NPD:2,2013-01-04T20:59:00Z,27.3338,-82.5794,0.0,18.98,2 
FWRI,ioos:station:FWRI:NPD:2,2013-01-04T21:59:00Z,27.3338,-82.5794,0.0,19.05,2 
FWRI,ioos:station:FWRI:NPD:2,2013-01-04T22:59:00Z,27.3338,-82.5794,0.0,18.73,2 
FWRI,ioos:station:FWRI:NPD:2,2013-01-04T23:59:00Z,27.3338,-82.5794,0.0,18.13,2 
FWRI,ioos:station:FWRI:NPD:2,2013-01-05T00:59:00Z,27.3338,-82.5794,0.0,17.58,2 
FWRI,ioos:station:FWRI:NPD:2,2013-01-05T01:59:00Z,27.3338,-82.5794,0.0,18.27,2 
FWRI,ioos:station:FWRI:NPD:2,2013-01-05T02:59:00Z,27.3338,-82.5794,0.0,18.29,2 
FWRI,ioos:station:FWRI:NPD:2,2013-01-05T03:59:00Z,27.3338,-82.5794,0.0,18.22,2 
FWRI,ioos:station:FWRI:NPD:2,2013-01-05T04:59:00Z,27.3338,-82.5794,0.0,18.16,2 
FWRI,ioos:station:FWRI:NPD:2,2013-01-05T05:59:00Z,27.3338,-82.5794,0.0,18.13,2 
FWRI,ioos:station:FWRI:NPD:2,2013-01-05T06:59:00Z,27.3338,-82.5794,0.0,18.03,2 
FWRI,ioos:station:FWRI:NPD:2,2013-01-05T07:59:00Z,27.3338,-82.5794,0.0,18.06,2 
FWRI,ioos:station:FWRI:NPD:2,2013-01-05T08:59:00Z,27.3338,-82.5794,0.0,17.97,2 
FWRI,ioos:station:FWRI:NPD:2,2013-01-05T09:59:00Z,27.3338,-82.5794,0.0,17.91,2 
FWRI,ioos:station:FWRI:NPD:2,2013-01-05T10:59:00Z,27.3338,-82.5794,0.0,17.93,2 
FWRI,ioos:station:FWRI:NPD:2,2013-01-05T11:59:00Z,27.3338,-82.5794,0.0,17.95,2 
FWRI,ioos:station:FWRI:NPD:2,2013-01-05T12:59:00Z,27.3338,-82.5794,0.0,17.91,2 
FWRI,ioos:station:FWRI:NPD:2,2013-01-05T13:59:00Z,27.3338,-82.5794,0.0,17.86,2 
FWRI,ioos:station:FWRI:NPD:2,2013-01-05T14:59:00Z,27.3338,-82.5794,0.0,17.83,2 
FWRI,ioos:station:FWRI:NPD:2,2013-01-05T15:59:00Z,27.3338,-82.5794,0.0,17.81,2 
FWRI,ioos:station:FWRI:NPD:2,2013-01-05T16:59:00Z,27.3338,-82.5794,0.0,18.16,2 
FWRI,ioos:station:FWRI:NPD:2,2013-01-05T17:59:00Z,27.3338,-82.5794,0.0,19.98,2 
FWRI,ioos:station:FWRI:NPD:2,2013-01-05T18:59:00Z,27.3338,-82.5794,0.0,22.64,2 
FWRI,ioos:station:FWRI:NPD:2,2013-01-05T19:59:00Z,27.3338,-82.5794,0.0,24.61,2 
FWRI,ioos:station:FWRI:NPD:2,2013-01-05T20:59:00Z,27.3338,-82.5794,0.0,25.75,2 
FWRI,ioos:station:FWRI:NPD:2,2013-01-05T21:59:00Z,27.3338,-82.5794,0.0,19.16,2 
FWRI,ioos:station:FWRI:NPD:2,2013-01-05T22:59:00Z,27.3338,-82.5794,0.0,18.96,2 
FWRI,ioos:station:FWRI:NPD:2,2013-01-05T23:59:00Z,27.3338,-82.5794,0.0,18.79,2 
FWRI,ioos:station:FWRI:NPD:2,2013-01-06T00:59:00Z,27.3338,-82.5794,0.0,18.71,2 
FWRI,ioos:station:FWRI:NPD:2,2013-01-06T01:59:00Z,27.3338,-82.5794,0.0,18.73,2 
FWRI,ioos:station:FWRI:NPD:2,2013-01-06T02:59:00Z,27.3338,-82.5794,0.0,18.77,2 
FWRI,ioos:station:FWRI:NPD:2,2013-01-06T03:59:00Z,27.3338,-82.5794,0.0,18.85,2 
FWRI,ioos:station:FWRI:NPD:2,2013-01-06T04:59:00Z,27.3338,-82.5794,0.0,18.96,2 
FWRI,ioos:station:FWRI:NPD:2,2013-01-06T05:59:00Z,27.3338,-82.5794,0.0,18.87,2 
FWRI,ioos:station:FWRI:NPD:2,2013-01-06T06:59:00Z,27.3338,-82.5794,0.0,18.8,2 
FWRI,ioos:station:FWRI:NPD:2,2013-01-06T07:59:00Z,27.3338,-82.5794,0.0,18.74,2 
FWRI,ioos:station:FWRI:NPD:2,2013-01-06T08:59:00Z,27.3338,-82.5794,0.0,18.72,2 
FWRI,ioos:station:FWRI:NPD:2,2013-01-06T09:59:00Z,27.3338,-82.5794,0.0,18.66,2 
FWRI,ioos:station:FWRI:NPD:2,2013-01-06T10:59:00Z,27.3338,-82.5794,0.0,18.51,2 
FWRI,ioos:station:FWRI:NPD:2,2013-01-06T11:59:00Z,27.3338,-82.5794,0.0,18.42,2 
FWRI,ioos:station:FWRI:NPD:2,2013-01-06T12:59:00Z,27.3338,-82.5794,0.0,18.39,2 
FWRI,ioos:station:FWRI:NPD:2,2013-01-06T13:59:00Z,27.3338,-82.5794,0.0,18.38,2 
FWRI,ioos:station:FWRI:NPD:2,2013-01-06T14:59:00Z,27.3338,-82.5794,0.0,18.49,2 
FWRI,ioos:station:FWRI:NPD:2,2013-01-06T15:59:00Z,27.3338,-82.5794,0.0,18.69,2 
FWRI,ioos:station:FWRI:NPD:2,2013-01-06T16:59:00Z,27.3338,-82.5794,0.0,18.97,2 
FWRI,ioos:station:FWRI:NPD:2,2013-01-06T17:59:00Z,27.3338,-82.5794,0.0,19.2,2 
FWRI,ioos:station:FWRI:NPD:2,2013-01-06T18:59:00Z,27.3338,-82.5794,0.0,19.32,2 
FWRI,ioos:station:FWRI:NPD:2,2013-01-06T19:59:00Z,27.3338,-82.5794,0.0,19.7,2 
FWRI,ioos:station:FWRI:NPD:2,2013-01-06T20:59:00Z,27.3338,-82.5794,0.0,19.7,2 
FWRI,ioos:station:FWRI:NPD:2,2013-01-06T21:59:00Z,27.3338,-82.5794,0.0,19.89,2 
FWRI,ioos:station:FWRI:NPD:2,2013-01-06T22:59:00Z,27.3338,-82.5794,0.0,19.74,2 
FWRI,ioos:station:FWRI:NPD:2,2013-01-06T23:59:00Z,27.3338,-82.5794,0.0,19.59,2 
FWRI,ioos:station:FWRI:NPD:2,2013-01-07T00:59:00Z,27.3338,-82.5794,0.0,19.51,2 
FWRI,ioos:station:FWRI:NPD:2,2013-01-07T01:59:00Z,27.3338,-82.5794,0.0,19.42,2 
FWRI,ioos:station:FWRI:NPD:2,2013-01-07T02:59:00Z,27.3338,-82.5794,0.0,19.43,2 
FWRI,ioos:station:FWRI:NPD:2,2013-01-07T03:59:00Z,27.3338,-82.5794,0.0,19.51,2 
FWRI,ioos:station:FWRI:NPD:2,2013-01-07T04:59:00Z,27.3338,-82.5794,0.0,19.56,2 
FWRI,ioos:station:FWRI:NPD:2,2013-01-07T05:59:00Z,27.3338,-82.5794,0.0,19.58,2 
FWRI,ioos:station:FWRI:NPD:2,2013-01-07T06:59:00Z,27.3338,-82.5794,0.0,19.54,2 
FWRI,ioos:station:FWRI:NPD:2,2013-01-07T07:59:00Z,27.3338,-82.5794,0.0,19.43,2 
FWRI,ioos:station:FWRI:NPD:2,2013-01-07T08:59:00Z,27.3338,-82.5794,0.0,19.31,2 
FWRI,ioos:station:FWRI:NPD:2,2013-01-07T09:59:00Z,27.3338,-82.5794,0.0,19.3,2 
FWRI,ioos:station:FWRI:NPD:2,2013-01-07T10:59:00Z,27.3338,-82.5794,0.0,19.3,2 
FWRI,ioos:station:FWRI:NPD:2,2013-01-07T11:59:00Z,27.3338,-82.5794,0.0,19.1,2 
FWRI,ioos:station:FWRI:NPD:2,2013-01-07T12:59:00Z,27.3338,-82.5794,0.0,18.89,2 
FWRI,ioos:station:FWRI:NPD:2,2013-01-07T13:59:00Z,27.3338,-82.5794,0.0,18.75,2 
FWRI,ioos:station:FWRI:NPD:2,2013-01-07T14:59:00Z,27.3338,-82.5794,0.0,18.71,2 
FWRI,ioos:station:FWRI:NPD:2,2013-01-07T15:59:00Z,27.3338,-82.5794,0.0,18.67,2 
FWRI,ioos:station:FWRI:NPD:2,2013-01-07T16:59:00Z,27.3338,-82.5794,0.0,18.69,2 
FWRI,ioos:station:FWRI:NPD:2,2013-01-07T17:59:00Z,27.3338,-82.5794,0.0,18.73,2 
FWRI,ioos:station:FWRI:NPD:2,2013-01-07T18:59:00Z,27.3338,-82.5794,0.0,18.86,2 
FWRI,ioos:station:FWRI:NPD:2,2013-01-07T19:59:00Z,27.3338,-82.5794,0.0,19.01,2 
FWRI,ioos:station:FWRI:NPD:2,2013-01-07T20:59:00Z,27.3338,-82.5794,0.0,19.09,2 
FWRI,ioos:station:FWRI:NPD:2,2013-01-07T21:59:00Z,27.3338,-82.5794,0.0,19.09,2 
FWRI,ioos:station:FWRI:NPD:2,2013-01-07T22:59:00Z,27.3338,-82.5794,0.0,19.03,2 
FWRI,ioos:station:FWRI:NPD:2,2013-01-07T23:59:00Z,27.3338,-82.5794,0.0,18.96,2 
FWRI,ioos:station:FWRI:NPD:2,2013-01-08T00:59:00Z,27.3338,-82.5794,0.0,18.89,2 
FWRI,ioos:station:FWRI:NPD:2,2013-01-08T01:59:00Z,27.3338,-82.5794,0.0,18.86,2 
FWRI,ioos:station:FWRI:NPD:2,2013-01-08T02:59:00Z,27.3338,-82.5794,0.0,18.79,2 
FWRI,ioos:station:FWRI:NPD:2,2013-01-08T03:59:00Z,27.3338,-82.5794,0.0,18.8,2 
FWRI,ioos:station:FWRI:NPD:2,2013-01-08T04:59:00Z,27.3338,-82.5794,0.0,18.88,2 
FWRI,ioos:station:FWRI:NPD:2,2013-01-08T05:59:00Z,27.3338,-82.5794,0.0,18.85,2 
FWRI,ioos:station:FWRI:NPD:2,2013-01-08T06:59:00Z,27.3338,-82.5794,0.0,18.82,2 
FWRI,ioos:station:FWRI:NPD:2,2013-01-08T07:59:00Z,27.3338,-82.5794,0.0,18.84,2 
FWRI,ioos:station:FWRI:NPD:2,2013-01-08T08:59:00Z,27.3338,-82.5794,0.0,18.85,2 
FWRI,ioos:station:FWRI:NPD:2,2013-01-08T09:59:00Z,27.3338,-82.5794,0.0,18.87,2 
FWRI,ioos:station:FWRI:NPD:2,2013-01-08T10:59:00Z,27.3338,-82.5794,0.0,18.83,2 
FWRI,ioos:station:FWRI:NPD:2,2013-01-08T11:59:00Z,27.3338,-82.5794,0.0,18.75,2 
FWRI,ioos:station:FWRI:NPD:2,2013-01-08T12:59:00Z,27.3338,-82.5794,0.0,18.56,2 
FWRI,ioos:station:FWRI:NPD:2,2013-01-08T13:59:00Z,27.3338,-82.5794,0.0,18.52,2 
FWRI,ioos:station:FWRI:NPD:2,2013-01-08T14:59:00Z,27.3338,-82.5794,0.0,18.73,2 
FWRI,ioos:station:FWRI:NPD:2,2013-01-08T15:59:00Z,27.3338,-82.5794,0.0,18.98,2 
FWRI,ioos:station:FWRI:NPD:2,2013-01-08T16:59:00Z,27.3338,-82.5794,0.0,24.15,2 
FWRI,ioos:station:FWRI:NPD:2,2013-01-08T17:59:00Z,27.3338,-82.5794,0.0,19.64,2 
FWRI,ioos:station:FWRI:NPD:2,2013-01-08T18:59:00Z,27.3338,-82.5794,0.0,19.65,2 
FWRI,ioos:station:FWRI:NPD:2,2013-01-08T19:59:00Z,27.3338,-82.5794,0.0,26.74,2 
FWRI,ioos:station:FWRI:NPD:2,2013-01-08T20:59:00Z,27.3338,-82.5794,0.0,27.28,2 
FWRI,ioos:station:FWRI:NPD:2,2013-01-08T21:59:00Z,27.3338,-82.5794,0.0,20.27,2 
FWRI,ioos:station:FWRI:NPD:2,2013-01-08T22:59:00Z,27.3338,-82.5794,0.0,19.96,2 
FWRI,ioos:station:FWRI:NPD:2,2013-01-08T23:59:00Z,27.3338,-82.5794,0.0,19.6,2 
FWRI,ioos:station:FWRI:NPD:2,2013-01-09T00:59:00Z,27.3338,-82.5794,0.0,19.27,2 
FWRI,ioos:station:FWRI:NPD:2,2013-01-09T01:59:00Z,27.3338,-82.5794,0.0,19.19,2 
FWRI,ioos:station:FWRI:NPD:2,2013-01-09T02:59:00Z,27.3338,-82.5794,0.0,19.23,2 
FWRI,ioos:station:FWRI:NPD:2,2013-01-09T03:59:00Z,27.3338,-82.5794,0.0,19.23,2 
FWRI,ioos:station:FWRI:NPD:2,2013-01-09T04:59:00Z,27.3338,-82.5794,0.0,19.31,2 
FWRI,ioos:station:FWRI:NPD:2,2013-01-09T05:59:00Z,27.3338,-82.5794,0.0,19.54,2 
FWRI,ioos:station:FWRI:NPD:2,2013-01-09T06:59:00Z,27.3338,-82.5794,0.0,19.75,2 
FWRI,ioos:station:FWRI:NPD:2,2013-01-09T07:59:00Z,27.3338,-82.5794,0.0,19.71,2 
FWRI,ioos:station:FWRI:NPD:2,2013-01-09T08:59:00Z,27.3338,-82.5794,0.0,19.68,2 
FWRI,ioos:station:FWRI:NPD:2,2013-01-09T09:59:00Z,27.3338,-82.5794,0.0,19.68,2 
FWRI,ioos:station:FWRI:NPD:2,2013-01-09T10:59:00Z,27.3338,-82.5794,0.0,19.65,2 
FWRI,ioos:station:FWRI:NPD:2,2013-01-09T11:59:00Z,27.3338,-82.5794,0.0,19.63,2 
FWRI,ioos:station:FWRI:NPD:2,2013-01-09T12:59:00Z,27.3338,-82.5794,0.0,19.65,2 
FWRI,ioos:station:FWRI:NPD:2,2013-01-09T13:59:00Z,27.3338,-82.5794,0.0,19.43,2 
FWRI,ioos:station:FWRI:NPD:2,2013-01-09T14:59:00Z,27.3338,-82.5794,0.0,19.6,2 
FWRI,ioos:station:FWRI:NPD:2,2013-01-09T15:59:00Z,27.3338,-82.5794,0.0,19.78,2 
FWRI,ioos:station:FWRI:NPD:2,2013-01-09T16:59:00Z,27.3338,-82.5794,0.0,20.0,2 
FWRI,ioos:station:FWRI:NPD:2,2013-01-09T17:59:00Z,27.3338,-82.5794,0.0,20.23,2 
FWRI,ioos:station:FWRI:NPD:2,2013-01-09T18:59:00Z,27.3338,-82.5794,0.0,20.37,2 
FWRI,ioos:station:FWRI:NPD:2,2013-01-09T19:59:00Z,27.3338,-82.5794,0.0,20.47,2 
FWRI,ioos:station:FWRI:NPD:2,2013-01-09T20:59:00Z,27.3338,-82.5794,0.0,20.65,2 
FWRI,ioos:station:FWRI:NPD:2,2013-01-09T21:59:00Z,27.3338,-82.5794,0.0,20.54,2 
FWRI,ioos:station:FWRI:NPD:2,2013-01-09T22:59:00Z,27.3338,-82.5794,0.0,20.72,2 
FWRI,ioos:station:FWRI:NPD:2,2013-01-09T23:59:00Z,27.3338,-82.5794,0.0,20.97,2 
FWRI,ioos:station:FWRI:NPD:2,2013-01-10T00:59:00Z,27.3338,-82.5794,0.0,20.84,2 
FWRI,ioos:station:FWRI:NPD:2,2013-01-10T01:59:00Z,27.3338,-82.5794,0.0,20.72,2 
FWRI,ioos:station:FWRI:NPD:2,2013-01-10T02:59:00Z,27.3338,-82.5794,0.0,20.53,2 
FWRI,ioos:station:FWRI:NPD:2,2013-01-10T03:59:00Z,27.3338,-82.5794,0.0,20.41,2 
FWRI,ioos:station:FWRI:NPD:2,2013-01-10T04:59:00Z,27.3338,-82.5794,0.0,20.33,2 
FWRI,ioos:station:FWRI:NPD:2,2013-01-10T05:59:00Z,27.3338,-82.5794,0.0,20.37,2 
FWRI,ioos:station:FWRI:NPD:2,2013-01-10T06:59:00Z,27.3338,-82.5794,0.0,20.35,2 
FWRI,ioos:station:FWRI:NPD:2,2013-01-10T07:59:00Z,27.3338,-82.5794,0.0,20.47,2 
FWRI,ioos:station:FWRI:NPD:2,2013-01-10T08:59:00Z,27.3338,-82.5794,0.0,20.45,2 
FWRI,ioos:station:FWRI:NPD:2,2013-01-10T09:59:00Z,27.3338,-82.5794,0.0,20.38,2 
FWRI,ioos:station:FWRI:NPD:2,2013-01-10T10:59:00Z,27.3338,-82.5794,0.0,20.33,2 
FWRI,ioos:station:FWRI:NPD:2,2013-01-10T11:59:00Z,27.3338,-82.5794,0.0,20.26,2 
FWRI,ioos:station:FWRI:NPD:2,2013-01-10T12:59:00Z,27.3338,-82.5794,0.0,20.19,2 
FWRI,ioos:station:FWRI:NPD:2,2013-01-10T13:59:00Z,27.3338,-82.5794,0.0,20.23,2 
FWRI,ioos:station:FWRI:NPD:2,2013-01-10T14:59:00Z,27.3338,-82.5794,0.0,20.16,2 
FWRI,ioos:station:FWRI:NPD:2,2013-01-10T15:59:00Z,27.3338,-82.5794,0.0,20.4,2 
FWRI,ioos:station:FWRI:NPD:2,2013-01-10T16:59:00Z,27.3338,-82.5794,0.0,20.62,2 
FWRI,ioos:station:FWRI:NPD:2,2013-01-10T17:59:00Z,27.3338,-82.5794,0.0,20.82,2 
FWRI,ioos:station:FWRI:NPD:2,2013-01-10T18:59:00Z,27.3338,-82.5794,0.0,21.04,2 
FWRI,ioos:station:FWRI:NPD:2,2013-01-10T19:59:00Z,27.3338,-82.5794,0.0,21.08,2 
FWRI,ioos:station:FWRI:NPD:2,2013-01-10T20:59:00Z,27.3338,-82.5794,0.0,21.01,2 
FWRI,ioos:station:FWRI:NPD:2,2013-01-10T21:59:00Z,27.3338,-82.5794,0.0,21.17,2 
FWRI,ioos:station:FWRI:NPD:2,2013-01-10T22:59:00Z,27.3338,-82.5794,0.0,21.16,2 
FWRI,ioos:station:FWRI:NPD:2,2013-01-10T23:59:00Z,27.3338,-82.5794,0.0,20.82,2 
FWRI,ioos:station:FWRI:NPD:2,2013-01-11T00:59:00Z,27.3338,-82.5794,0.0,20.7,2 
FWRI,ioos:station:FWRI:NPD:2,2013-01-11T01:59:00Z,27.3338,-82.5794,0.0,20.63,2 
FWRI,ioos:station:FWRI:NPD:2,2013-01-11T02:59:00Z,27.3338,-82.5794,0.0,20.44,2 
FWRI,ioos:station:FWRI:NPD:2,2013-01-11T03:59:00Z,27.3338,-82.5794,0.0,20.22,2 
FWRI,ioos:station:FWRI:NPD:2,2013-01-11T04:59:00Z,27.3338,-82.5794,0.0,20.12,2 
FWRI,ioos:station:FWRI:NPD:2,2013-01-11T05:59:00Z,27.3338,-82.5794,0.0,20.04,2 
FWRI,ioos:station:FWRI:NPD:2,2013-01-11T06:59:00Z,27.3338,-82.5794,0.0,20.09,2 
FWRI,ioos:station:FWRI:NPD:2,2013-01-11T07:59:00Z,27.3338,-82.5794,0.0,20.15,2 
FWRI,ioos:station:FWRI:NPD:2,2013-01-11T08:59:00Z,27.3338,-82.5794,0.0,20.34,2 
FWRI,ioos:station:FWRI:NPD:2,2013-01-11T09:59:00Z,27.3338,-82.5794,0.0,20.49,2 
FWRI,ioos:station:FWRI:NPD:2,2013-01-11T10:59:00Z,27.3338,-82.5794,0.0,20.45,2 
FWRI,ioos:station:FWRI:NPD:2,2013-01-11T11:59:00Z,27.3338,-82.5794,0.0,20.44,2 
FWRI,ioos:station:FWRI:NPD:2,2013-01-11T12:59:00Z,27.3338,-82.5794,0.0,20.43,2 
FWRI,ioos:station:FWRI:NPD:2,2013-01-11T13:59:00Z,27.3338,-82.5794,0.0,20.41,2 
FWRI,ioos:station:FWRI:NPD:2,2013-01-11T14:59:00Z,27.3338,-82.5794,0.0,20.39,2 
FWRI,ioos:station:FWRI:NPD:2,2013-01-11T15:59:00Z,27.3338,-82.5794,0.0,20.53,2 
FWRI,ioos:station:FWRI:NPD:2,2013-01-11T16:59:00Z,27.3338,-82.5794,0.0,20.76,2 
FWRI,ioos:station:FWRI:NPD:2,2013-01-11T17:59:00Z,27.3338,-82.5794,0.0,20.92,2 
FWRI,ioos:station:FWRI:NPD:2,2013-01-11T18:59:00Z,27.3338,-82.5794,0.0,21.03,2 
FWRI,ioos:station:FWRI:NPD:2,2013-01-11T19:59:00Z,27.3338,-82.5794,0.0,21.13,2 
FWRI,ioos:station:FWRI:NPD:2,2013-01-11T20:59:00Z,27.3338,-82.5794,0.0,21.05,2 
FWRI,ioos:station:FWRI:NPD:2,2013-01-11T21:59:00Z,27.3338,-82.5794,0.0,21.1,2 
FWRI,ioos:station:FWRI:NPD:2,2013-01-11T22:59:00Z,27.3338,-82.5794,0.0,21.42,2 
FWRI,ioos:station:FWRI:NPD:2,2013-01-11T23:59:00Z,27.3338,-82.5794,0.0,21.13,2 
FWRI,ioos:station:FWRI:NPD:2,2013-01-12T00:59:00Z,27.3338,-82.5794,0.0,20.96,2 
FWRI,ioos:station:FWRI:NPD:2,2013-01-12T01:59:00Z,27.3338,-82.5794,0.0,20.9,2 
FWRI,ioos:station:FWRI:NPD:2,2013-01-12T02:59:00Z,27.3338,-82.5794,0.0,20.88,2 
FWRI,ioos:station:FWRI:NPD:2,2013-01-12T03:59:00Z,27.3338,-82.5794,0.0,20.76,2 
FWRI,ioos:station:FWRI:NPD:2,2013-01-12T04:59:00Z,27.3338,-82.5794,0.0,20.63,2 
FWRI,ioos:station:FWRI:NPD:2,2013-01-12T05:59:00Z,27.3338,-82.5794,0.0,20.61,2 
FWRI,ioos:station:FWRI:NPD:2,2013-01-12T06:59:00Z,27.3338,-82.5794,0.0,20.55,2 
FWRI,ioos:station:FWRI:NPD:2,2013-01-12T07:59:00Z,27.3338,-82.5794,0.0,20.54,2 
FWRI,ioos:station:FWRI:NPD:2,2013-01-12T08:59:00Z,27.3338,-82.5794,0.0,20.53,2 
FWRI,ioos:station:FWRI:NPD:2,2013-01-12T09:59:00Z,27.3338,-82.5794,0.0,20.59,2 
FWRI,ioos:station:FWRI:NPD:2,2013-01-12T10:59:00Z,27.3338,-82.5794,0.0,20.71,2 
FWRI,ioos:station:FWRI:NPD:2,2013-01-12T11:59:00Z,27.3338,-82.5794,0.0,20.74,2 
FWRI,ioos:station:FWRI:NPD:2,2013-01-12T12:59:00Z,27.3338,-82.5794,0.0,20.71,2 
FWRI,ioos:station:FWRI:NPD:2,2013-01-12T13:59:00Z,27.3338,-82.5794,0.0,20.67,2 
FWRI,ioos:station:FWRI:NPD:2,2013-01-12T14:59:00Z,27.3338,-82.5794,0.0,20.89,2 
FWRI,ioos:station:FWRI:NPD:2,2013-01-12T15:59:00Z,27.3338,-82.5794,0.0,21.01,2 
FWRI,ioos:station:FWRI:NPD:2,2013-01-12T16:59:00Z,27.3338,-82.5794,0.0,21.15,2 
FWRI,ioos:station:FWRI:NPD:2,2013-01-12T17:59:00Z,27.3338,-82.5794,0.0,21.36,2 
FWRI,ioos:station:FWRI:NPD:2,2013-01-12T18:59:00Z,27.3338,-82.5794,0.0,21.51,2 
FWRI,ioos:station:FWRI:NPD:2,2013-01-12T19:59:00Z,27.3338,-82.5794,0.0,21.48,2 
FWRI,ioos:station:FWRI:NPD:2,2013-01-12T20:59:00Z,27.3338,-82.5794,0.0,21.42,2 
FWRI,ioos:station:FWRI:NPD:2,2013-01-12T21:59:00Z,27.3338,-82.5794,0.0,21.66,2 
FWRI,ioos:station:FWRI:NPD:2,2013-01-12T22:59:00Z,27.3338,-82.5794,0.0,21.8,2 
FWRI,ioos:station:FWRI:NPD:2,2013-01-12T23:59:00Z,27.3338,-82.5794,0.0,21.71,2 
FWRI,ioos:station:FWRI:NPD:2,2013-01-13T00:59:00Z,27.3338,-82.5794,0.0,21.71,2 
FWRI,ioos:station:FWRI:NPD:2,2013-01-13T01:59:00Z,27.3338,-82.5794,0.0,21.41,2 
FWRI,ioos:station:FWRI:NPD:2,2013-01-13T02:59:00Z,27.3338,-82.5794,0.0,21.27,2 
FWRI,ioos:station:FWRI:NPD:2,2013-01-13T03:59:00Z,27.3338,-82.5794,0.0,21.17,2 
FWRI,ioos:station:FWRI:NPD:2,2013-01-13T04:59:00Z,27.3338,-82.5794,0.0,21.08,2 
FWRI,ioos:station:FWRI:NPD:2,2013-01-13T05:59:00Z,27.3338,-82.5794,0.0,21.02,2 
FWRI,ioos:station:FWRI:NPD:2,2013-01-13T06:59:00Z,27.3338,-82.5794,0.0,20.97,2 
FWRI,ioos:station:FWRI:NPD:2,2013-01-13T07:59:00Z,27.3338,-82.5794,0.0,20.91,2 
FWRI,ioos:station:FWRI:NPD:2,2013-01-13T08:59:00Z,27.3338,-82.5794,0.0,20.91,2 
FWRI,ioos:station:FWRI:NPD:2,2013-01-13T09:59:00Z,27.3338,-82.5794,0.0,20.85,2 
FWRI,ioos:station:FWRI:NPD:2,2013-01-13T10:59:00Z,27.3338,-82.5794,0.0,20.9,2 